Wind_Speed
15 14 13 12 10 9 7 5 4 2 0 2 3 4 5 7 8 10 11 12 13 14 14 13 12 12 12 12 12 13 12 11 10 8 7 7 5 3 3 4 5 6 7 8
17 16 15 13 11 10 8 6 5 3 2 2 2 3 4 6 7 8 10 11 12 13 13 13 12 12 12 12 12 13 13 12 11 9 8 8 7 5 4 4 5 7 8 8
20 19 17 14 12 11 10 9 7 6 3 3 2 4 4 4 5 7 8 10 11 12 12 12 12 12 11 12 12 12 12 12 11 10 9 8 7 7 5 4 4 6 8 8
23 21 18 16 14 12 12 11 10 8 5 5 3 3 5 4 4 6 7 9 10 11 11 12 12 12 11 12 12 12 12 12 11 9 10 9 8 8 6 4 4 5 6 7
24 22 20 18 16 15 15 13 11 10 8 7 6 4 6 5 4 5 7 8 8 9 11 11 12 12 12 11 12 12 12 12 11 10 10 10 9 9 7 5 5 4 5 6
26 23 22 21 18 17 16 14 13 12 10 10 8 6 6 6 4 4 5 6 7 9 10 11 11 12 12 11 11 12 13 13 11 10 10 9 10 9 8 7 6 6 6 7
26 25 24 22 21 19 17 16 14 12 11 11 10 8 8 8 6 5 6 6 7 9 9 10 11 11 11 10 11 12 12 13 12 10 10 9 9 9 9 9 8 7 7 7
28 27 26 24 23 22 20 18 16 13 12 12 12 10 10 9 8 7 7 7 8 9 9 10 10 10 10 11 11 11 11 12 12 11 10 10 9 10 10 10 9 8 7 7
30 29 28 26 25 24 23 21 19 18 16 14 13 12 11 10 10 9 8 8 8 9 10 9 10 10 10 11 11 11 11 11 12 12 11 11 9 10 10 10 10 9 9 9
32 31 30 28 27 27 26 24 23 20 18 16 15 13 12 12 11 11 10 10 9 9 10 10 10 11 10 10 11 11 11 12 12 12 11 11 10 10 10 10 10 10 11 10
33 32 31 30 30 29 28 27 25 23 21 17 14 14 14 13 13 12 12 12 11 11 11 11 11 11 11 10 10 11 11 12 12 12 12 12 11 10 10 11 11 11 11 11
35 34 32 32 32 31 30 29 27 25 24 21 18 16 16 15 14 14 14 14 13 13 12 12 11 11 11 11 11 11 11 12 12 12 12 12 12 12 12 12 12 12 12 12
36 36 35 33 33 33 32 30 28 26 25 24 20 17 18 17 16 15 15 15 15 14 13 13 12 11 12 12 12 12 12 12 12 12 13 13 13 13 14 14 14 14 13 13
38 37 36 32 30 30 32 31 30 28 27 25 23 20 20 18 18 17 16 16 15 15 15 14 13 13 13 13 13 13 13 13 13 13 14 14 14 15 15 15 16 15 15 15
39 39 38 36 34 33 33 32 31 31 29 27 25 23 21 20 19 18 17 16 16 16 16 16 15 15 15 15 15 14 14 14 15 15 15 16 16 16 16 17 17 17 17 17
40 40 39 38 36 35 35 34 34 33 32 30 28 26 23 22 21 20 19 18 18 18 18 18 17 17 17 16 16 15 15 16 16 17 18 18 18 18 18 19 19 19 19 19
41 41 40 39 38 38 38 36 35 34 33 32 30 28 26 25 23 22 21 20 19 19 20 20 20 19 18 19 18 18 18 18 18 19 19 19 20 20 20 20 20 20 20 20
42 41 41 39 39 40 38 36 36 35 34 33 32 31 28 27 25 24 23 22 22 22 22 22 22 21 21 21 21 20 20 20 20 21 21 22 22 22 22 22 23 23 22 22
42 41 41 40 39 40 40 39 36 35 35 33 33 32 30 28 27 27 25 25 24 24 24 24 24 24 24 24 24 23 23 23 23 23 24 24 25 25 25 25 25 25 25 25
42 42 42 42 40 37 39 38 35 35 36 35 33 33 31 30 28 29 28 27 27 26 26 26 26 26 27 27 27 26 26 26 26 26 27 27 28 27 27 28 27 27 27 27
43 43 43 42 41 38 40 38 36 36 37 35 34 33 33 32 31 31 30 29 29 28 28 28 28 28 29 30 30 30 29 30 30 30 30 30 29 29 30 30 30 30 30 30
43 43 43 42 41 41 43 40 39 38 38 37 35 34 33 33 33 32 32 31 31 30 30 30 30 30 31 32 33 33 33 33 33 33 34 34 33 33 33 34 33 33 32 31
44 44 43 44 43 44 42 41 40 40 39 38 37 37 36 35 35 35 34 34 33 32 32 32 32 32 33 34 35 35 34 36 36 36 37 37 37 37 37 36 35 34 33 33
44 43 43 44 44 44 43 41 40 40 39 39 38 38 37 37 37 37 36 35 35 34 34 34 34 35 36 36 37 37 38 39 39 40 40 39 38 39 39 37 35 34 34 34
43 42 43 44 44 43 43 42 41 40 39 39 39 39 38 38 38 37 37 37 36 36 36 36 36 37 37 38 39 40 40 41 41 41 41 41 41 40 40 39 37 36 35 35
40 41 42 42 43 43 42 42 42 41 41 40 40 39 39 39 39 38 38 38 38 38 38 39 39 39 39 40 41 41 41 42 42 42 42 42 41 41 40 39 39 38 37 36
Wind_Direction
212 212 216 215 208 208 212 215 223 230 340 13 17 21 16 19 18 19 20 22 23 24 25 27 28 27 26 26 24 22 20 18 17 17 18 14 7 341 292 257 246 244 236 232
215 218 219 217 215 217 222 227 238 251 275 316 336 349 351 3 11 12 15 16 17 19 21 21 23 21 20 24 24 23 21 18 17 16 14 8 6 0 330 283 256 250 245 242
219 222 222 222 220 224 230 233 241 251 269 277 301 329 326 341 1 6 8 9 11 13 15 16 16 14 17 21 20 20 18 16 16 15 13 10 7 360 347 316 279 258 250 248
222 224 224 224 224 227 237 239 244 253 261 267 269 283 299 313 341 357 360 1 5 8 9 9 9 10 11 14 14 14 13 11 11 9 4 7 4 357 349 330 305 279 266 259
224 225 225 225 225 227 235 241 245 252 258 260 264 257 274 290 313 337 346 351 360 3 3 2 4 4 7 9 7 6 6 7 9 5 1 1 360 355 353 336 317 303 283 275
226 226 226 226 226 229 235 241 248 255 258 261 255 248 260 272 285 310 327 342 352 358 359 358 358 358 359 2 2 2 2 1 5 2 357 354 354 354 352 344 324 307 299 283
228 228 228 228 229 230 233 237 246 253 258 260 256 245 244 255 267 284 302 320 336 347 352 352 353 356 358 359 358 357 359 358 359 356 352 350 350 351 346 344 334 320 311 296
228 229 229 229 230 233 232 232 234 238 249 259 262 250 249 256 263 274 287 303 320 335 343 345 347 350 352 352 353 352 351 352 353 351 347 347 346 347 346 343 338 332 321 309
228 230 230 230 230 232 234 233 236 241 244 244 254 256 254 255 260 267 277 290 305 321 330 333 336 342 345 346 347 347 346 349 351 351 349 346 344 342 343 342 338 333 325 314
228 230 232 232 233 233 234 236 238 239 243 248 257 259 252 255 257 263 270 280 290 307 319 323 325 329 335 340 343 343 343 347 349 349 349 348 345 343 340 338 334 331 328 320
228 229 232 233 233 236 236 237 239 241 241 241 250 256 253 251 253 257 265 273 282 294 305 313 317 322 326 332 335 337 339 341 344 345 345 346 346 342 339 336 332 327 323 320
228 229 231 233 234 235 237 238 240 242 244 244 241 249 256 251 250 254 260 267 275 284 295 303 309 312 318 322 327 329 333 335 338 338 339 340 341 341 337 333 331 328 326 321
227 229 230 232 234 235 237 239 241 241 244 245 245 249 255 252 250 253 258 263 268 274 283 291 297 302 308 313 317 321 326 329 331 332 333 335 336 334 332 329 329 327 324 320
227 229 229 230 234 237 237 238 239 240 242 246 246 243 251 251 251 252 254 259 263 267 275 283 287 292 299 304 307 311 316 321 324 326 328 330 330 329 328 326 325 325 324 321
228 230 230 229 231 235 237 237 238 239 239 242 247 247 248 249 251 252 253 256 260 264 271 276 281 285 290 296 299 303 307 312 316 318 321 322 323 323 323 324 324 324 324 321
229 231 232 232 233 235 236 237 239 240 241 243 244 246 248 248 249 252 253 256 259 262 266 271 276 281 285 290 295 298 301 305 307 309 313 317 317 318 319 319 320 319 319 318
230 231 232 233 235 236 236 236 238 240 242 244 246 248 249 248 250 252 254 254 257 260 263 269 272 276 281 285 290 292 297 299 300 303 307 309 313 314 315 315 314 314 315 314
230 231 232 233 235 235 237 238 238 241 242 243 245 247 249 250 251 252 253 254 257 259 261 264 267 269 274 279 283 287 292 296 297 298 301 304 307 309 309 309 307 307 308 309
229 230 231 232 235 237 237 237 238 241 243 243 244 246 248 249 251 253 253 255 257 260 261 262 264 266 271 275 279 283 287 289 292 295 297 299 301 305 306 306 303 302 303 304
229 229 230 232 233 237 240 238 238 241 242 241 243 245 247 249 249 252 254 256 258 259 259 260 263 264 267 271 276 279 282 285 288 291 294 297 299 301 303 305 304 304 301 300
228 229 230 231 233 235 238 238 237 239 241 242 242 245 247 248 249 252 254 256 258 259 259 260 261 262 264 268 272 275 278 281 283 287 291 293 295 297 299 301 301 302 301 299
229 230 231 231 232 235 237 237 238 240 242 243 244 245 248 249 251 252 255 257 259 260 260 260 260 261 263 266 269 270 274 278 282 285 288 290 293 294 297 297 298 298 299 299
228 229 231 231 231 235 237 239 239 241 243 244 245 246 248 250 252 254 257 259 260 260 259 258 258 260 263 266 269 272 276 279 282 284 285 287 290 293 296 295 296 295 296 296
228 228 230 232 233 234 236 238 239 241 243 245 246 247 249 251 254 256 258 259 260 261 260 260 261 261 263 266 268 272 276 279 281 283 285 286 287 291 293 293 293 293 293 294
228 228 230 232 233 235 236 237 239 241 243 244 245 247 249 251 253 256 257 259 261 262 262 263 263 266 267 268 269 272 275 278 279 281 283 285 287 290 292 292 292 291 292 293
228 230 231 233 233 235 237 238 239 240 242 244 245 247 250 252 253 255 257 259 260 261 263 264 265 267 268 269 269 271 274 276 277 279 281 284 286 289 289 289 291 292 292 293
Height
5937 5940 5942 5943 5945 5947 5948 5949 5950 5950 5949 5948 5948 5947 5946 5944 5942 5940 5938 5936 5934 5931 5929 5927 5925 5923 5921 5918 5916 5914 5912 5910 5908 5906 5905 5904 5903 5902 5902 5901 5901 5901 5902 5903
5935 5937 5939 5940 5942 5944 5946 5947 5948 5948 5948 5948 5947 5947 5946 5944 5943 5941 5939 5937 5935 5933 5931 5928 5926 5924 5922 5920 5917 5915 5913 5911 5909 5907 5905 5903 5902 5901 5901 5900 5900 5900 5900 5901
5931 5934 5935 5938 5940 5942 5944 5946 5946 5947 5947 5947 5947 5947 5946 5945 5943 5942 5940 5938 5936 5934 5932 5929 5927 5925 5922 5920 5918 5916 5914 5911 5909 5907 5905 5904 5902 5901 5899 5899 5898 5898 5898 5899
5927 5930 5933 5935 5937 5940 5941 5943 5944 5945 5946 5947 5947 5949 5946 5944 5943 5942 5940 5939 5937 5935 5932 5930 5928 5926 5923 5921 5919 5916 5914 5912 5910 5908 5906 5903 5902 5900 5899 5897 5897 5897 5897 5897
5923 5926 5929 5932 5935 5937 5938 5940 5941 5943 5944 5945 5945 5946 5947 5944 5943 5942 5940 5939 5937 5935 5933 5931 5928 5926 5924 5922 5919 5917 5914 5912 5910 5908 5906 5904 5902 5900 5898 5897 5896 5896 5896 5895
5919 5922 5925 5928 5931 5933 5935 5937 5939 5940 5942 5943 5943 5944 5945 5943 5942 5941 5940 5938 5937 5935 5933 5931 5929 5926 5924 5922 5920 5917 5914 5912 5909 5908 5906 5904 5902 5900 5898 5897 5895 5895 5894 5894
5915 5918 5921 5924 5927 5930 5932 5935 5938 5939 5941 5942 5940 5941 5942 5940 5940 5939 5939 5938 5936 5935 5933 5931 5929 5926 5924 5922 5920 5917 5915 5912 5910 5908 5906 5904 5902 5900 5898 5896 5895 5894 5893 5893
5910 5914 5916 5920 5923 5925 5928 5932 5935 5938 5940 5940 5937 5938 5939 5938 5938 5937 5937 5936 5935 5934 5932 5930 5928 5926 5924 5922 5919 5917 5915 5912 5910 5908 5905 5902 5901 5899 5898 5896 5894 5893 5892 5891
5905 5909 5911 5915 5918 5921 5923 5927 5930 5932 5933 5935 5935 5935 5936 5935 5935 5935 5935 5934 5933 5932 5931 5929 5928 5926 5923 5921 5919 5917 5914 5912 5910 5907 5905 5902 5900 5899 5897 5895 5894 5892 5891 5889
5899 5903 5906 5909 5912 5915 5919 5922 5924 5927 5929 5931 5932 5932 5934 5932 5932 5932 5932 5932 5931 5930 5929 5928 5926 5924 5922 5920 5918 5916 5914 5911 5909 5907 5904 5902 5900 5898 5896 5894 5893 5891 5889 5888
5892 5897 5900 5903 5907 5910 5913 5916 5919 5922 5924 5927 5930 5932 5929 5929 5929 5929 5929 5929 5929 5928 5927 5926 5924 5923 5921 5919 5917 5915 5913 5910 5908 5906 5904 5901 5899 5897 5895 5893 5891 5889 5888 5886
5885 5890 5893 5897 5900 5903 5907 5910 5913 5917 5918 5920 5924 5929 5924 5925 5925 5926 5926 5926 5925 5925 5924 5923 5922 5921 5919 5917 5915 5913 5911 5909 5907 5905 5903 5901 5898 5896 5894 5892 5890 5888 5886 5884
5877 5882 5887 5890 5895 5897 5900 5903 5907 5910 5912 5915 5918 5923 5919 5920 5921 5922 5922 5922 5922 5922 5921 5920 5919 5918 5917 5915 5913 5912 5910 5908 5906 5904 5901 5899 5897 5895 5893 5891 5888 5886 5884 5882
5869 5874 5880 5886 5889 5891 5893 5897 5900 5903 5906 5909 5912 5915 5915 5915 5916 5917 5917 5918 5918 5918 5918 5917 5916 5915 5914 5913 5911 5909 5908 5906 5904 5902 5900 5898 5896 5894 5891 5889 5887 5884 5882 5879
5860 5866 5871 5876 5880 5883 5886 5889 5893 5896 5900 5903 5906 5907 5909 5910 5911 5912 5913 5913 5913 5914 5913 5913 5912 5912 5911 5909 5908 5907 5905 5903 5902 5900 5898 5896 5893 5891 5889 5886 5884 5882 5879 5877
5852 5857 5862 5867 5871 5874 5878 5882 5885 5888 5892 5895 5898 5900 5902 5903 5905 5906 5907 5908 5908 5909 5909 5908 5908 5907 5907 5906 5905 5903 5902 5900 5899 5897 5895 5893 5891 5888 5886 5884 5881 5878 5876 5873
5843 5849 5854 5859 5862 5865 5869 5874 5878 5881 5884 5888 5891 5894 5895 5897 5898 5900 5901 5902 5903 5903 5903 5903 5903 5903 5902 5901 5900 5899 5898 5896 5895 5893 5891 5889 5887 5885 5882 5880 5877 5875 5872 5869
5834 5839 5844 5850 5853 5856 5864 5866 5870 5873 5876 5880 5883 5885 5888 5890 5891 5893 5894 5896 5897 5897 5898 5897 5897 5897 5897 5896 5895 5894 5893 5892 5890 5889 5887 5885 5882 5880 5877 5875 5872 5870 5867 5864
5825 5830 5835 5840 5844 5848 5853 5857 5861 5865 5868 5871 5874 5877 5880 5882 5884 5886 5887 5888 5890 5891 5891 5891 5891 5891 5891 5890 5890 5889 5888 5886 5885 5883 5881 5879 5877 5874 5872 5870 5867 5864 5862 5859
5815 5820 5826 5830 5835 5840 5845 5849 5853 5857 5858 5863 5866 5869 5872 5874 5877 5878 5879 5880 5882 5883 5884 5884 5884 5884 5884 5884 5883 5883 5881 5880 5879 5877 5875 5873 5870 5868 5866 5864 5861 5858 5855 5853
5805 5810 5815 5820 5825 5831 5834 5839 5844 5849 5850 5854 5857 5860 5863 5865 5868 5870 5871 5872 5874 5875 5876 5876 5877 5877 5877 5877 5876 5875 5874 5873 5872 5870 5868 5866 5863 5861 5859 5856 5854 5851 5849 5846
5795 5801 5806 5811 5817 5822 5824 5829 5835 5838 5841 5845 5848 5851 5854 5856 5858 5860 5862 5864 5865 5866 5867 5868 5868 5869 5869 5869 5868 5867 5866 5864 5863 5862 5860 5858 5856 5853 5850 5848 5846 5843 5841 5838
5784 5790 5794 5800 5806 5809 5814 5819 5824 5828 5832 5835 5839 5842 5844 5847 5849 5851 5853 5854 5856 5857 5858 5859 5859 5860 5860 5860 5859 5858 5857 5856 5855 5853 5852 5849 5847 5845 5842 5839 5837 5835 5832 5830
5773 5779 5784 5789 5794 5799 5804 5808 5813 5817 5821 5825 5828 5832 5834 5837 5839 5841 5843 5844 5846 5847 5848 5849 5850 5850 5850 5850 5850 5849 5848 5847 5846 5844 5842 5840 5838 5836 5833 5831 5828 5826 5824 5821
5763 5769 5773 5778 5784 5789 5793 5798 5803 5807 5811 5815 5818 5821 5824 5826 5828 5831 5832 5834 5835 5837 5838 5839 5839 5839 5839 5839 5839 5839 5838 5837 5836 5834 5832 5830 5828 5826 5824 5821 5819 5816 5814 5812
5753 5759 5764 5768 5774 5779 5783 5788 5792 5797 5800 5804 5807 5810 5813 5815 5818 5820 5821 5823 5824 5826 5827 5827 5828 5828 5828 5828 5828 5827 5827 5826 5825 5824 5822 5820 5817 5815 5813 5811 5809 5806 5805 5802